Talkeetna, AK

8:30 PM AKDT on March 22, 2017 (GMT -0800)
Talkeetna

Weather History for PATK - April, 2013

Change the Weather History Date:

Monday, April 8, 2013

  Actual Average Record
Temperature  
Mean Temperature 13 °F -  
Max Temperature 26 °F 41 °F 60 °F (1966)
Min Temperature 0 °F 21 °F -7 °F (1972)
Degree Days  
Heating Degree Days 52    
Moisture  
Dew Point 9 °F    
Average Humidity 72    
Maximum Humidity 93    
Minimum Humidity 46    
Precipitation  
Precipitation 0.08 in - - ()
Sea Level Pressure  
Sea Level Pressure 29.50 in    
Wind  
Wind Speed 1 mph (NW)    
Max Wind Speed 6 mph    
Max Gust Speed -    
Visibility 7 miles    
Events Snow    
Averages and records for this station are not official NWS values.
T = Trace of Precipitation, MM = Missing Value Source: NWS Daily Summary

Daily Weather History Graph

Daily Weather History Graph

Search for Another Location

Airport or City:

Trip Planner

Search our weather history database for the weather conditions in past years. The results will help you decide how hot, cold, wet, or windy it might be!

Date:

Astronomy

Apr. 08, 2013 Rise Set
Actual Time 6:57 AM AKDT 9:08 PM AKDT
Civil Twilight 6:08 AM AKDT 9:57 PM AKDT
Nautical Twilight 5:04 AM AKDT 11:02 PM AKDT
Astronomical Twilight 3:36 AM AKDT 12:34 AM AKDT
Moon 6:16 AM AKDT (4/8) 7:39 PM AKDT (4/8)
Length of Visible Light 15h 48m
Length of Day
14h 11m
Waning Crescent, 3% of the Moon is Illuminated
Apr 8
Waning Crescent
Apr 10
New
Apr 18
First Quarter
Apr 25
Full
May 2
Last Quarter

Hourly Weather History & Observations

Time (AKDT) Temp. Windchill Dew Point Humidity Pressure Visibility Wind Dir Wind Speed Gust Speed Precip Events Conditions
12:53 AM 8.1 °F - 1.9 °F 76% 29.81 in 10.0 mi Calm Calm - N/A   Overcast
1:53 AM 9.0 °F - 3.0 °F 77% 29.80 in 10.0 mi Calm Calm - N/A   Overcast
2:53 AM 10.0 °F 3.6 °F 3.0 °F 73% 29.79 in 10.0 mi North 3.5 mph - N/A   Overcast
3:53 AM 7.0 °F - 1.0 °F 77% 29.77 in 10.0 mi Calm Calm - N/A   Mostly Cloudy
4:53 AM 6.1 °F -0.9 °F -0.0 °F 76% 29.76 in 10.0 mi NNE 3.5 mph - N/A   Scattered Clouds
5:53 AM 3.9 °F - -0.9 °F 80% 29.74 in 10.0 mi Calm Calm - N/A   Clear
6:53 AM 1.0 °F - -4.0 °F 79% 29.73 in 10.0 mi Calm Calm - N/A   Clear
7:53 AM -0.0 °F - -5.1 °F 79% 29.72 in 10.0 mi Calm Calm - N/A   Clear
8:53 AM 3.0 °F - -4.0 °F 73% 29.70 in 10.0 mi Calm Calm - N/A   Partly Cloudy
9:53 AM 7.0 °F - -2.9 °F 64% 29.68 in 10.0 mi Calm Calm - N/A   Overcast
10:53 AM 12.0 °F 4.1 °F -2.0 °F 53% 29.65 in 10.0 mi NNW 4.6 mph - N/A   Overcast
11:53 AM 17.1 °F 11.7 °F -0.0 °F 47% 29.62 in 10.0 mi NW 3.5 mph - N/A   Overcast
12:53 PM 19.0 °F - 1.0 °F 46% 29.60 in 10.0 mi Calm Calm - N/A   Overcast
1:53 PM 21.9 °F - 3.9 °F 46% 29.57 in 10.0 mi Calm Calm - N/A   Overcast
2:53 PM 24.1 °F 19.7 °F 10.0 °F 55% 29.54 in 10.0 mi Variable 3.5 mph - N/A   Overcast
3:53 PM 24.1 °F - 12.9 °F 62% 29.50 in 9.0 mi Calm Calm - 0.00 in   Overcast
4:53 PM 25.0 °F 19.3 °F 15.1 °F 66% 29.46 in 10.0 mi West 4.6 mph - 0.00 in   Overcast
5:53 PM 25.0 °F 20.7 °F 17.1 °F 72% 29.42 in 10.0 mi West 3.5 mph - N/A   Overcast
6:53 PM 26.1 °F 21.9 °F 15.1 °F 63% 29.39 in 10.0 mi West 3.5 mph - 0.00 in   Overcast
7:53 PM 25.0 °F 18.1 °F 16.0 °F 69% 29.36 in 5.0 mi WNW 5.8 mph - 0.00 in   Haze
8:28 PM 24.8 °F 19.1 °F 15.8 °F 69% 29.32 in 2.5 mi West 4.6 mph - 0.00 in Snow Light Snow
8:41 PM 23.0 °F 18.4 °F 15.8 °F 74% 29.31 in 4.0 mi West 3.5 mph - 0.00 in Snow Light Snow
8:53 PM 23.0 °F - 15.1 °F 72% 29.34 in 3.0 mi Calm Calm - 0.00 in Snow Light Snow
9:53 PM 21.9 °F 17.2 °F 15.1 °F 75% 29.31 in 3.0 mi NW 3.5 mph - 0.00 in Snow Light Snow
10:00 PM 21.2 °F 16.4 °F 15.8 °F 80% 29.28 in 2.0 mi WNW 3.5 mph - 0.00 in Snow Light Snow
10:12 PM 21.2 °F - 17.6 °F 86% 29.27 in 2.0 mi Calm Calm - 0.01 in Snow Light Snow
10:32 PM 19.4 °F - 17.6 °F 93% 29.26 in 1.5 mi Calm Calm - 0.01 in Snow Light Snow
10:45 PM 19.4 °F - 17.6 °F 93% 29.26 in 2.0 mi Calm Calm - 0.01 in Snow Light Snow
10:53 PM 19.9 °F - 17.1 °F 89% 29.28 in 2.0 mi Calm Calm - 0.02 in Snow Light Snow
11:10 PM 19.4 °F - 17.6 °F 93% 29.25 in 3.0 mi Calm Calm - 0.00 in Snow Light Snow
11:24 PM 19.4 °F - 17.6 °F 93% 29.24 in 2.5 mi Calm Calm - 0.00 in Snow Light Snow
11:32 PM 19.4 °F - 17.6 °F 93% 29.24 in 1.8 mi Calm Calm - 0.00 in Snow Light Snow
11:53 PM 19.9 °F - 18.0 °F 92% 29.25 in 1.5 mi Calm Calm - 0.01 in Snow Light Snow